Location: Miramichi City (Newcastle)
(46.9830°N, 65.5670°W)
Time: 19:16:29
(UTC-04:00)

Iridium 12 - Visible Passes

Search period start: 08 February 2016 00:00
Search period end: 18 February 2016 00:00
Orbit: 776 x 779 km, 86.4° (Epoch: 08 February)

Date Brightness Start Highest point End Pass type
(mag) Time Alt. Az. Time Alt. Az. Time Alt. Az.
08 Feb 8.4 03:22:51 11° NNE 03:22:51 11° NNE 03:23:09 10° NNE visible
08 Feb 7.4 05:03:20 19° N 05:03:20 19° N 05:04:45 10° N visible
09 Feb 7.6 04:30:06 17° N 04:30:06 17° N 04:31:18 10° N visible
10 Feb 8.0 03:56:50 14° NNE 03:56:50 14° NNE 03:57:37 10° NNE visible
10 Feb 7.6 05:37:18 12° NNW 05:37:18 12° NNW 05:37:44 10° NNW visible
11 Feb 8.4 03:23:32 11° NNE 03:23:32 11° NNE 03:23:41 10° NNE visible
11 Feb 7.7 05:04:01 13° NNW 05:04:01 13° NNW 05:04:42 10° N visible
12 Feb 7.8 04:30:42 14° N 04:30:42 14° N 04:31:23 10° N visible
13 Feb 8.1 03:57:22 13° N 03:57:22 13° N 03:57:50 10° N visible
14 Feb 8.4 03:24:01 10° NNE 03:24:01 10° NNE 03:24:04 10° NNE visible
14 Feb 7.9 05:04:30 10° NNW 05:04:30 10° NNW 05:04:33 10° NNW visible
15 Feb 8.0 04:31:08 11° N 04:31:08 11° N 04:31:23 10° N visible
16 Feb 8.1 03:57:45 11° N 03:57:45 11° N 03:57:58 10° N visible
